Flag for Colombia Weather past 2 weeks in San Juan de Pasto, Colombia

Now
57 °F

Passing clouds.


Feels Like: 54 °F
Forecast: 48 / 70 °F
Wind: 15 mph from South

Location: Latacunga Airport

Current Time: Sep 2, 2014 at 7:24:43 PM

Latest Report: Sep 2, 2014 at 7:00 PM


Visibility: N/A

Pressure: 30.33 "Hg

Humidity: 67%

Dew point: 46 °F

Location of San Juan de PastoLocation

Historic Weather in San Juan de Pasto — Graph

°F

San Juan de Pasto temperature yesterday

Maximum temperature yesterday: 63 °F (at 11:00 AM)
Minimum temperature yesterday: 36 °F (at 6:00 AM)
Average temperature yesterday: 52 °F

Past Weeks' High & Low Weather Summary

 TemperatureHumidityPressure
High68 °F (Aug 21, 2:00 PM)100% (Aug 19, 12:00 AM)30.54 "Hg (Aug 19, 12:00 AM)
Low34 °F (Sep 2, 6:00 AM)30% (Aug 31, 2:00 PM)29.83 "Hg (Aug 30, 3:00 PM)
Average53 °F79%30.41 "Hg
* Reported Aug 18 6:00 PM — Sep 2 6:00 PM, San Juan de Pasto, Weather by CustomWeather, © 2014

Note: Actual official high and low records may vary slightly from our data, if they occured in-between our weather recording intervals... More about our weather records

Advertising

San Juan de Pasto weather history for previous 24 hours

 ConditionsComfort  
Time TempWeatherWind HumidityBarometerVisibility
6:00 PM
Sep 2
59 °FPassing clouds.18 mph63%30.30 "HgN/A
5:00 PM64 °FScattered clouds.22 mph49%30.27 "HgN/A
4:00 PM68 °FScattered clouds.20 mph46%30.27 "HgN/A
3:00 PM66 °FScattered clouds.20 mph46%30.30 "HgN/A
2:00 PM66 °FPartly sunny.17 mph43%30.33 "HgN/A
1:00 PM66 °FPartly sunny.14 mph43%30.39 "HgN/A
12:00 PM66 °FPartly sunny.17 mph43%30.42 "HgN/A
11:00 AM64 °FPartly sunny.16 mph46%30.45 "HgN/A
10:00 AM61 °FScattered clouds.16 mph59%30.45 "HgN/A
9:00 AM55 °FPassing clouds.9 mph63%30.45 "HgN/A
8:00 AM48 °FScattered clouds.2 mph82%30.45 "HgN/A
7:00 AM36 °FPartly sunny.3 mph100%30.42 "HgN/A
6:00 AM34 °FPassing clouds.2 mph100%30.42 "HgN/A
5:00 AM36 °FPassing clouds.5 mphN/A30.39 "HgN/A
4:00 AM36 °FPassing clouds.5 mphN/A30.39 "HgN/A
3:00 AM39 °FPassing clouds.5 mph100%30.39 "HgN/A
2:00 AM45 °FPassing clouds.3 mph100%30.45 "HgN/A
1:00 AM45 °FPassing clouds.1 mph93%30.45 "HgN/A
12:00 AM48 °FPassing clouds.7 mph94%30.45 "HgN/A
11:00 PM
Sep 1
48 °FPassing clouds.5 mph94%30.45 "HgN/A
10:00 PM50 °FPassing clouds.12 mph88%30.45 "HgN/A
9:00 PM50 °FPassing clouds.8 mph82%30.42 "HgN/A
8:00 PM52 °FPassing clouds.14 mph77%30.39 "HgN/A
7:00 PM54 °FPassing clouds.18 mph72%30.36 "HgN/A
Weather by CustomWeather, © 2014

See weather overviewHow to use our weather pages